TimeEST,TemperatureF,Dew PointF,Humidity,Sea Level PressureIn,VisibilityMPH,Wind Direction,Wind SpeedMPH,Gust SpeedMPH,PrecipitationIn,Events,Conditions,WindDirDegrees,DateUTC
12:53 AM,60.1,53.1,78,30.20,10.0,North,5.8,-,N/A,,Mostly Cloudy,10,2013-12-31 05:53:00
1:53 AM,59.0,53.1,81,30.19,10.0,NNW,3.5,-,N/A,,Mostly Cloudy,340,2013-12-31 06:53:00
2:53 AM,59.0,54.0,83,30.19,10.0,North,4.6,-,N/A,,Mostly Cloudy,360,2013-12-31 07:53:00
3:53 AM,59.0,54.0,83,30.21,10.0,North,6.9,-,N/A,,Mostly Cloudy,350,2013-12-31 08:53:00
4:53 AM,57.9,53.1,84,30.21,10.0,North,6.9,-,N/A,,Mostly Cloudy,360,2013-12-31 09:53:00
5:53 AM,57.9,53.1,84,30.22,10.0,North,8.1,-,N/A,,Mostly Cloudy,360,2013-12-31 10:53:00
6:53 AM,59.0,51.1,75,30.27,10.0,North,6.9,-,N/A,,Mostly Cloudy,350,2013-12-31 11:53:00
7:53 AM,59.0,48.9,69,30.28,10.0,North,9.2,-,N/A,,Mostly Cloudy,360,2013-12-31 12:53:00
8:53 AM,61.0,48.9,64,30.31,10.0,North,10.4,-,N/A,,Mostly Cloudy,360,2013-12-31 13:53:00
9:53 AM,62.1,48.0,60,30.32,10.0,North,12.7,-,N/A,,Mostly Cloudy,10,2013-12-31 14:53:00
10:53 AM,66.0,46.9,50,30.30,10.0,NNE,10.4,-,N/A,,Mostly Cloudy,20,2013-12-31 15:53:00
11:53 AM,68.0,46.0,45,30.30,10.0,NNE,11.5,-,N/A,,Mostly Cloudy,20,2013-12-31 16:53:00
12:53 PM,68.0,45.0,43,30.27,10.0,NE,9.2,-,N/A,,Mostly Cloudy,40,2013-12-31 17:53:00
1:53 PM,71.1,46.9,42,30.24,10.0,ENE,8.1,-,N/A,,Mostly Cloudy,60,2013-12-31 18:53:00
2:53 PM,69.1,50.0,51,30.24,10.0,NNE,6.9,-,N/A,,Overcast,20,2013-12-31 19:53:00
3:53 PM,68.0,46.0,45,30.25,10.0,NNE,11.5,-,N/A,,Overcast,30,2013-12-31 20:53:00
4:53 PM,66.9,48.9,52,30.26,10.0,NE,10.4,-,N/A,,Overcast,40,2013-12-31 21:53:00
5:53 PM,64.0,50.0,60,30.27,10.0,ENE,10.4,-,N/A,,Overcast,60,2013-12-31 22:53:00
6:53 PM,62.1,48.0,60,30.28,10.0,NE,11.5,-,N/A,,Overcast,40,2013-12-31 23:53:00
7:53 PM,61.0,52.0,72,30.30,10.0,NNE,10.4,-,N/A,,Overcast,20,2014-01-01 00:53:00
8:53 PM,61.0,52.0,72,30.31,10.0,NNE,11.5,-,0.00,,Overcast,30,2014-01-01 01:53:00
9:53 PM,61.0,51.1,70,30.29,10.0,NNE,9.2,-,N/A,,Overcast,20,2014-01-01 02:53:00
10:53 PM,61.0,53.1,75,30.28,10.0,NNE,9.2,-,N/A,,Overcast,20,2014-01-01 03:53:00
11:53 PM,61.0,53.1,75,30.27,10.0,NNE,11.5,-,N/A,,Overcast,20,2014-01-01 04:53:00